| time (UTC) | temp F | wind direction | speed MPH | gust MPH | rain 1hr in | rain 24hr in | rain mn in | humidity % | barometer mb |
| 20260504032503 | 53 | 289 | 0.0 | 3.0 | 0.00 | 0.00 | 0.00 | 93 | 1014.9 |
| 20260504031430 | 54 | 317 | 1.0 | 5.0 | 0.00 | 0.00 | 0.00 | 92 | 1014.9 |
| 20260504030424 | 54 | 291 | 0.0 | 0.0 | 0.00 | 0.00 | 0.00 | 91 | 1014.9 |
| 20260504025415 | 55 | 291 | 0.0 | 4.0 | 0.00 | 0.00 | 0.00 | 90 | 1014.7 |
| 20260504024413 | 55 | 312 | 0.0 | 4.0 | 0.00 | 0.00 | 0.00 | 89 | 1014.6 |
| 20260504023426 | 56 | 318 | 1.0 | 6.0 | 0.00 | 0.00 | 0.00 | 88 | 1014.4 |
| 20260504022420 | 57 | 302 | 3.0 | 7.0 | 0.00 | 0.00 | 0.00 | 87 | 1014.4 |
| 20260504021416 | 57 | 324 | 1.0 | 8.0 | 0.00 | 0.00 | 0.00 | 86 | 1014.4 |
| 20260504020431 | 58 | 317 | 5.0 | 10.0 | 0.00 | 0.00 | 0.00 | 84 | 1014.4 |
| 20260504015424 | 58 | 306 | 4.0 | 9.0 | 0.00 | 0.00 | 0.00 | 83 | 1014.4 |
| 20260504014418 | 58 | 297 | 3.0 | 8.0 | 0.00 | 0.00 | 0.00 | 83 | 1014.5 |
| 20260504013436 | 58 | 298 | 3.0 | 9.0 | 0.00 | 0.00 | 0.00 | 84 | 1014.4 |
| 20260504012428 | 58 | 314 | 3.0 | 8.0 | 0.00 | 0.00 | 0.00 | 84 | 1014.4 |
| 20260504011420 | 58 | 314 | 2.0 | 8.0 | 0.00 | 0.00 | 0.00 | 83 | 1014.4 |
| 20260504010414 | 59 | 311 | 3.0 | 7.0 | 0.00 | 0.00 | 0.00 | 83 | 1014.6 |
| 20260504005431 | 59 | 304 | 5.0 | 10.0 | 0.00 | 0.00 | 0.00 | 84 | 1014.6 |
| 20260504004444 | 59 | 291 | 5.0 | 9.0 | 0.00 | 0.00 | 0.00 | 83 | 1014.5 |
| 20260504003418 | 58 | 307 | 4.0 | 9.0 | 0.00 | 0.00 | 0.00 | 84 | 1014.5 |
| 20260504002416 | 58 | 310 | 5.0 | 7.0 | 0.00 | 0.00 | 0.00 | 84 | 1014.5 |
| 20260504001430 | 58 | 291 | 4.0 | 8.0 | 0.00 | 0.00 | 0.00 | 85 | 1014.5 |
| 20260504000425 | 58 | 327 | 6.0 | 9.0 | 0.00 | 0.00 | 0.00 | 84 | 1014.5 |
| 20260503235417 | 58 | 322 | 6.0 | 10.0 | 0.00 | 0.00 | 0.00 | 82 | 1014.4 |
| 20260503234415 | 59 | 300 | 2.0 | 7.0 | 0.00 | 0.00 | 0.00 | 84 | 1014.4 |
| 20260503233429 | 59 | 305 | 2.0 | 7.0 | 0.00 | 0.00 | 0.00 | 83 | 1014.3 |
| 20260503232421 | 59 | 319 | 3.0 | 8.0 | 0.00 | 0.00 | 0.00 | 83 | 1014.4 |
| 20260503231454 | 60 | 305 | 3.0 | 8.0 | 0.00 | 0.00 | 0.00 | 82 | 1014.3 |
| 20260503230427 | 60 | 258 | 3.0 | 8.0 | 0.00 | 0.00 | 0.00 | 82 | 1014.3 |
| 20260503225440 | 60 | 312 | 3.0 | 8.0 | 0.00 | 0.00 | 0.00 | 80 | 1014.1 |
| 20260503224432 | 61 | 337 | 2.0 | 7.0 | 0.00 | 0.00 | 0.00 | 81 | 1014.2 |
| 20260503223447 | 60 | 263 | 2.0 | 10.0 | 0.00 | 0.00 | 0.00 | 81 | 1014.1 |
| 20260503222423 | 60 | 327 | 4.0 | 11.0 | 0.00 | 0.00 | 0.00 | 79 | 1014.3 |
| 20260503221415 | 60 | 267 | 2.0 | 6.0 | 0.00 | 0.00 | 0.00 | 79 | 1014.3 |
| 20260503220429 | 60 | 286 | 3.0 | 9.0 | 0.00 | 0.00 | 0.00 | 79 | 1014.3 |
| 20260503215421 | 61 | 285 | 1.0 | 5.0 | 0.00 | 0.00 | 0.00 | 80 | 1014.4 |
| 20260503214419 | 61 | 286 | 4.0 | 8.0 | 0.00 | 0.00 | 0.00 | 79 | 1014.4 |
| 20260503213433 | 61 | 280 | 2.0 | 7.0 | 0.00 | 0.00 | 0.00 | 77 | 1014.3 |
| 20260503212426 | 61 | 299 | 3.0 | 7.0 | 0.00 | 0.00 | 0.00 | 80 | 1014.2 |
| 20260503211424 | 61 | 249 | 4.0 | 9.0 | 0.00 | 0.00 | 0.00 | 77 | 1014.2 |
| 20260503210417 | 61 | 290 | 1.0 | 7.0 | 0.00 | 0.00 | 0.00 | 75 | 1014.2 |
| 20260503205430 | 61 | 300 | 3.0 | 10.0 | 0.00 | 0.00 | 0.00 | 76 | 1014.1 |
| 20260503204422 | 61 | 310 | 0.0 | 4.0 | 0.00 | 0.00 | 0.00 | 75 | 1014.1 |
| 20260503203441 | 60 | 311 | 2.0 | 9.0 | 0.00 | 0.00 | 0.00 | 73 | 1014.2 |
| 20260503202413 | 60 | 305 | 3.0 | 7.0 | 0.00 | 0.00 | 0.00 | 78 | 1014.3 |
| 20260503201427 | 60 | 270 | 2.0 | 8.0 | 0.00 | 0.00 | 0.00 | 78 | 1014.3 |
| 20260503200420 | 60 | 319 | 4.0 | 7.0 | 0.00 | 0.00 | 0.00 | 81 | 1014.4 |
| 20260503195417 | 59 | 297 | 3.0 | 8.0 | 0.00 | 0.00 | 0.00 | 79 | 1014.4 |
| 20260503194430 | 60 | 292 | 3.0 | 8.0 | 0.00 | 0.00 | 0.00 | 78 | 1014.5 |
| 20260503193423 | 59 | 286 | 1.0 | 7.0 | 0.00 | 0.00 | 0.00 | 79 | 1014.4 |
| 20260503192438 | 59 | 293 | 2.0 | 5.0 | 0.00 | 0.00 | 0.00 | 80 | 1014.5 |
| 20260503191435 | 60 | 291 | 1.0 | 4.0 | 0.00 | 0.00 | 0.00 | 81 | 1014.6 |
| 20260503190426 | 60 | 288 | 1.0 | 3.0 | 0.00 | 0.00 | 0.00 | 81 | 1014.5 |
| 20260503185416 | 58 | 318 | 0.0 | 6.0 | 0.00 | 0.00 | 0.00 | 81 | 1014.4 |
| 20260503184428 | 58 | 346 | 2.0 | 7.0 | 0.00 | 0.00 | 0.00 | 81 | 1014.5 |
| 20260503183425 | 58 | 324 | 5.0 | 8.0 | 0.00 | 0.00 | 0.00 | 82 | 1014.5 |
| 20260503182416 | 58 | 308 | 2.0 | 10.0 | 0.00 | 0.00 | 0.00 | 81 | 1014.4 |
| 20260503181429 | 57 | 274 | 4.0 | 8.0 | 0.00 | 0.00 | 0.00 | 82 | 1014.3 |
| 20260503180421 | 57 | 318 | 4.0 | 9.0 | 0.00 | 0.00 | 0.00 | 82 | 1014.4 |
| 20260503175413 | 57 | 310 | 1.0 | 4.0 | 0.00 | 0.00 | 0.00 | 85 | 1014.4 |
| 20260503110438 | 52 | 298 | 0.0 | 0.0 | 0.00 | 0.00 | 0.00 | 95 | 1012.3 |
| 20260503090418 | 52 | 313 | 0.0 | 0.0 | 0.00 | 0.00 | 0.00 | 96 | 1012.7 |
| 20260503081423 | 52 | 312 | 0.0 | 2.0 | 0.00 | 0.00 | 0.00 | 95 | 1013.0 |
| 20260503080420 | 52 | 312 | 0.0 | 1.0 | 0.00 | 0.00 | 0.00 | 95 | 1012.9 |
| 20260503072416 | 52 | 312 | 0.0 | 0.0 | 0.00 | 0.00 | 0.00 | 95 | 1013.1 |
| 20260503071450 | 52 | 312 | 0.0 | 2.0 | 0.00 | 0.00 | 0.00 | 95 | 1013.0 |
| 20260503070423 | 52 | 312 | 0.0 | 0.0 | 0.00 | 0.00 | 0.00 | 95 | 1013.1 |
| 20260503054453 | 52 | 312 | 0.0 | 0.0 | 0.00 | 0.00 | 0.00 | 94 | 1013.6 |
| 20260503053429 | 52 | 312 | 0.0 | 1.0 | 0.00 | 0.00 | 0.00 | 94 | 1013.5 |
| 20260503052421 | 52 | 305 | 0.0 | 1.0 | 0.00 | 0.00 | 0.00 | 94 | 1013.6 |
| 20260503051415 | 52 | 305 | 0.0 | 2.0 | 0.00 | 0.00 | 0.00 | 94 | 1013.6 |
| 20260503050429 | 52 | 305 | 0.0 | 2.0 | 0.00 | 0.00 | 0.00 | 94 | 1013.6 |
| 20260503045425 | 52 | 305 | 0.0 | 2.0 | 0.00 | 0.00 | 0.00 | 94 | 1013.6 |
| 20260503044419 | 52 | 305 | 0.0 | 0.0 | 0.00 | 0.00 | 0.00 | 94 | 1013.7 |
| 20260503043432 | 52 | 305 | 0.0 | 2.0 | 0.00 | 0.00 | 0.00 | 94 | 1013.5 |
| 20260503042444 | 52 | 305 | 0.0 | 2.0 | 0.00 | 0.00 | 0.00 | 94 | 1013.6 |
| 20260503041420 | 52 | 305 | 0.0 | 3.0 | 0.00 | 0.00 | 0.00 | 94 | 1013.4 |
| 20260503040432 | 53 | 291 | 0.0 | 2.0 | 0.00 | 0.00 | 0.00 | 94 | 1013.4 |
| 20260503035425 | 53 | 289 | 1.0 | 3.0 | 0.00 | 0.00 | 0.00 | 93 | 1013.1 |
| 20260503034417 | 53 | 289 | 0.0 | 2.0 | 0.00 | 0.00 | 0.00 | 93 | 1013.0 |
| 20260503033434 | 53 | 289 | 0.0 | 3.0 | 0.00 | 0.00 | 0.00 | 92 | 1013.0 |